Weather History for LEXJ - December, 2012

Change the Weather History Date:

Wednesday, December 19, 2012

  Actual Average Record
Temperature  
Mean Temperature 55 °F -  
Max Temperature 62 °F 52 °F 64 °F (2002)
Min Temperature 48 °F 42 °F 26 °F (2001)
Degree Days  
Heating Degree Days 10    
Growing Degree Days 5 (Base 50)    
Moisture  
Dew Point 48 °F    
Average Humidity 73    
Maximum Humidity 100    
Minimum Humidity 55    
Precipitation  
Precipitation 0.00 in - - ()
Sea Level Pressure  
Sea Level Pressure 29.98 in    
Wind  
Wind Speed 4 mph ()    
Max Wind Speed 17 mph    
Max Gust Speed 30 mph    
Visibility 6.2 miles    
Events      
Averages and records for this station are not official NWS values.
T = Trace of Precipitation, MM = Missing Value Source: Averaged Metar Reports

Daily Weather History Graph

Daily Weather History Graph

Search for Another Location

Airport or City:

Trip Planner

Search our weather history database for the weather conditions in past years. The results will help you decide how hot, cold, wet, or windy it might be!

Date:

Astronomy

Dec. 19, 2012 Rise Set
Actual Time 8:43 AM CET 5:41 PM CET
Civil Twilight 8:11 AM CET 6:14 PM CET
Nautical Twilight 7:35 AM CET 6:50 PM CET
Astronomical Twilight 7:00 AM CET 7:25 PM CET
Moon 12:35 PM CET (12/19) 12:01 AM CET (12/19)
Length of Visible Light 10h 02m
Length of Day
8h 57m
Waxing Crescent, 42% of the Moon is Illuminated
Dec 19
Waxing Crescent
Dec 20
First Quarter
Dec 28
Full
Jan 5
Last Quarter
Jan 11
New

Hourly Weather History & Observations

Time (CET) Temp. Dew Point Humidity Pressure Visibility Wind Dir Wind Speed Gust Speed Precip Events Conditions
5:30 AM 51.8 °F 48.2 °F 88% 30.06 in 6.2 mi Variable 1.2 mph - N/A   Partly Cloudy
6:00 AM 51.8 °F 48.2 °F 88% 30.06 in 6.2 mi SW 1.2 mph - N/A   Partly Cloudy
6:30 AM 50.0 °F 48.2 °F 94% 30.06 in 6.2 mi Calm Calm - N/A   Partly Cloudy
7:00 AM 50.0 °F 48.2 °F 94% 30.06 in 6.2 mi ESE 1.2 mph - N/A   Scattered Clouds
7:30 AM 50.0 °F 48.2 °F 94% 30.06 in 6.2 mi Calm Calm - N/A   Scattered Clouds
8:00 AM 50.0 °F 48.2 °F 94% 30.06 in 6.2 mi Calm Calm - N/A   Scattered Clouds
8:30 AM 50.0 °F 48.2 °F 94% 30.04 in 6.2 mi Calm Calm - N/A   Partly Cloudy
9:00 AM 48.2 °F 48.2 °F 100% 30.04 in 6.2 mi Calm Calm - N/A   Partly Cloudy
9:30 AM 50.0 °F 50.0 °F 100% 30.04 in 6.2 mi Calm Calm - N/A   Partly Cloudy
10:00 AM 51.8 °F 50.0 °F 94% 30.04 in 6.2 mi Calm Calm - N/A   Partly Cloudy
10:30 AM 51.8 °F 50.0 °F 94% 30.04 in - Calm Calm - N/A   Clear
11:00 AM 53.6 °F 51.8 °F 94% 30.04 in - Calm Calm - N/A   Clear
11:30 AM 55.4 °F 51.8 °F 88% 30.06 in - Calm Calm - N/A   Clear
12:00 PM 55.4 °F 51.8 °F 88% 30.04 in - Variable 1.2 mph - N/A   Clear
12:30 PM 57.2 °F 50.0 °F 77% 30.04 in - Calm Calm - N/A   Clear
1:00 PM 60.8 °F 50.0 °F 68% 30.01 in - Variable 2.3 mph - N/A   Clear
1:30 PM 57.2 °F 51.8 °F 82% 30.01 in - Calm Calm - N/A   Clear
2:00 PM 59.0 °F 50.0 °F 72% 30.01 in - Calm Calm - N/A   Clear
2:30 PM 62.6 °F 48.2 °F 59% 29.98 in - South 12.7 mph - N/A   Clear
3:00 PM 60.8 °F 48.2 °F 63% 29.98 in - South 9.2 mph - N/A   Clear
3:30 PM 60.8 °F 46.4 °F 59% 29.95 in - South 12.7 mph - N/A   Clear
4:00 PM 60.8 °F 48.2 °F 63% 29.95 in - South 16.1 mph 27.6 mph N/A   Clear
4:30 PM 60.8 °F 46.4 °F 59% 29.95 in - South 12.7 mph 26.5 mph N/A   Clear
5:00 PM 60.8 °F 46.4 °F 59% 29.95 in - South 10.4 mph - N/A   Clear
5:30 PM 60.8 °F 44.6 °F 55% 29.95 in - SSW 10.4 mph - N/A   Clear
6:00 PM 60.8 °F 46.4 °F 59% 29.92 in - South 11.5 mph - N/A   Clear
6:30 PM 60.8 °F 44.6 °F 55% 29.92 in - SSW 10.4 mph - N/A   Clear
7:00 PM 60.8 °F 44.6 °F 55% 29.92 in - SSW 10.4 mph - N/A   Clear
7:30 PM 60.8 °F 46.4 °F 59% 29.92 in - SSW 13.8 mph - N/A   Clear
8:00 PM 60.8 °F 44.6 °F 55% 29.92 in - SSW 13.8 mph - N/A   Clear
8:30 PM 60.8 °F 44.6 °F 55% 29.89 in - SSW 12.7 mph - N/A   Clear
9:00 PM 60.8 °F 44.6 °F 55% 29.89 in - SSW 12.7 mph 24.2 mph N/A   Clear
9:30 PM 60.8 °F 44.6 °F 55% 29.86 in - SSW 13.8 mph - N/A   Clear
10:00 PM 60.8 °F 44.6 °F 55% 29.86 in - SSW 15.0 mph 26.5 mph N/A   Clear
10:30 PM 60.8 °F 46.4 °F 59% 29.86 in - SSW 13.8 mph 28.8 mph N/A   Clear
11:00 PM 60.8 °F 44.6 °F 55% 29.83 in - SSW 17.3 mph 29.9 mph N/A   Clear